Orbital elements:
2004 KL19
Epoch 2011 Aug. 27.0 TT = JDT 2455800.5 MPC
M 5.68442 (2000.0) P Q
n 0.00300993 Peri. 199.35222 -0.53165632 +0.84465836
a 47.5078671 Node 38.60045 -0.76329174 -0.44590425
e 0.3203766 Incl. 5.74026 -0.36705214 -0.29617842
P 327 H 8.7 G 0.15 U 3